Location: Newark
(51.0500°N, 12.4500°E)
Time: 01:45:52
(UTC+00:00)

Vanguard 1 - Pass Details

Date: 25 February 2020
Orbit: 649 x 3833 km, 34.2° (Epoch: 06 April)

Event Time Altitude Azimuth Distance (km) Brightness Sun altitude
Rises 06:54:31 0° 231° (SW) 7,961 14.4 6.6°
Reaches altitude 10° 07:00:37 10° 225° (SW) 6,913 14.2 7.5°
Maximum altitude 07:20:02 39° 167° (SSE) 4,134 13.9 10.2°
Drops below altitude 10° 07:33:24 10° 106° (ESE) 4,854 15.5 12.0°
Sets 07:36:46 0° 98° (E) 5,480 15.2 12.5°
